Date String (YYYY-MM-DD hh:mm:ss) UTC,Instrument flags,Ambient pressure (hPa),Sample flow (lpm),Bypass flow (lpm),Sample temperature (°C),Ambient temperature (°C),ASC tube jacket temperature (°C),LED temperature (°C),Box temperature (°C),Sample RH (%),Span deviation,Mass concentration (μg/m³),Mass concentration (μg/m³),Mass concentration (μg/m³)
DateTimeUTC,F1_M11,P_M11,Q1_M11,Q2_M11,T1_M11,T2_M11,T3_M11,T4_M11,T5_M11,U1_M11,ZSPAN_M11,X0_M11,X2_M11,X1_M11
2022-01-11 10:00:00,,0831.5,5.00,0.00,22.5,21.8,00.0,31.6,24.2,04.5,0000.0,0002.96,0001.04,0000.84
2022-01-11 10:01:00,,0831.5,5.00,0.00,22.5,21.8,00.0,31.6,24.1,04.7,0000.0,0002.63,0000.88,0000.72
2022-01-11 10:02:00,,0831.5,4.99,0.00,22.5,21.8,00.0,31.6,24.1,05.0,0000.0,0002.47,0000.77,0000.60
2022-01-11 10:03:00,,0831.5,5.01,0.00,22.5,21.8,00.0,31.5,24.1,04.7,0000.0,0002.23,0000.63,0000.49
2022-01-11 10:04:00,,0831.5,4.98,0.00,22.5,21.8,00.0,31.6,24.1,04.9,0000.0,0002.04,0000.51,0000.40
2022-01-11 10:05:00,,0831.5,5.00,0.00,22.5,21.8,00.0,31.5,24.1,05.0,0000.0,0001.48,0000.40,0000.33
2022-01-11 10:06:00,,0831.5,5.01,0.00,22.5,21.8,00.0,31.5,24.2,04.8,0000.0,0000.37,0000.29,0000.26
2022-01-11 10:07:00,,0831.6,5.00,0.00,22.5,21.8,00.0,31.5,24.1,04.6,0000.0,0000.33,0000.25,0000.22
2022-01-11 10:08:00,,0831.6,4.99,0.00,22.5,21.8,00.0,31.5,24.2,04.7,0000.0,0000.30,0000.23,0000.19
2022-01-11 10:09:00,,0831.7,5.01,0.00,22.4,21.7,00.0,31.5,24.2,05.2,0000.0,0000.30,0000.22,0000.18
2022-01-11 10:10:00,,0831.7,4.99,0.00,22.4,21.7,00.0,31.5,24.1,05.6,0000.0,0000.42,0000.31,0000.26
2022-01-11 10:11:00,,0831.7,5.01,0.00,22.4,21.7,00.0,31.5,24.1,05.2,0000.0,0000.53,0000.40,0000.35
2022-01-11 10:12:00,,0831.7,4.98,0.00,22.3,21.6,00.0,31.5,24.0,05.3,0000.0,0000.61,0000.48,0000.42
2022-01-11 10:13:00,,0831.7,5.00,0.00,22.3,21.6,00.0,31.5,24.0,04.8,0000.0,0000.66,0000.53,0000.48
2022-01-11 10:14:00,,0831.7,5.00,0.00,22.3,21.6,00.0,31.5,24.0,05.6,0000.0,0000.69,0000.57,0000.53
2022-01-11 10:15:00,,0831.7,5.01,0.00,22.3,21.6,00.0,31.5,24.1,06.1,0000.0,0000.69,0000.59,0000.56
2022-01-11 10:16:00,,0831.7,5.00,0.00,22.3,21.7,00.0,31.5,24.1,06.2,0000.0,0000.73,0000.62,0000.59
2022-01-11 10:17:00,,0831.7,5.00,0.00,22.3,21.7,00.0,31.5,24.2,06.5,0000.0,0001.00,0000.73,0000.67
2022-01-11 10:18:00,,0831.7,5.00,0.00,22.4,21.7,00.0,31.5,24.2,06.6,0000.0,0001.26,0000.87,0000.78
2022-01-11 10:19:00,,0831.7,5.01,0.00,22.4,21.7,00.0,31.4,24.2,06.6,0000.0,0001.43,0001.01,0000.90
2022-01-11 10:20:00,,0831.7,4.99,0.00,22.4,21.8,00.0,31.4,24.2,06.5,0000.0,0001.64,0001.17,0001.02
2022-01-11 10:21:00,,0831.7,5.01,0.00,22.4,21.8,00.0,31.4,24.2,06.5,0000.0,0001.73,0001.22,0001.05
2022-01-11 10:22:00,,0831.7,5.00,0.00,22.4,21.8,00.0,31.4,24.2,06.5,0000.0,0002.18,0001.24,0001.04
2022-01-11 10:23:00,,0831.7,5.00,0.00,22.4,21.8,00.0,31.4,24.2,06.4,0000.0,0002.71,0001.28,0001.07
2022-01-11 10:24:00,,0831.6,5.01,0.00,22.4,21.8,00.0,31.4,24.2,06.3,0000.0,0003.00,0001.31,0001.07
2022-01-11 10:25:00,,0831.5,5.01,0.00,22.4,21.8,00.0,31.4,24.2,06.1,0000.0,0003.54,0001.38,0001.10
2022-01-11 10:26:00,,0831.6,4.99,0.00,22.4,21.8,00.0,31.4,24.2,06.0,0000.0,0003.64,0001.42,0001.12
2022-01-11 10:27:00,,0831.5,4.99,0.00,22.4,21.8,00.0,31.4,24.2,05.8,0000.0,0003.87,0001.47,0001.14
2022-01-11 10:28:00,,0831.5,5.01,0.00,22.4,21.8,00.0,31.4,24.2,05.7,0000.0,0003.79,0001.42,0001.10
2022-01-11 10:29:00,,0831.5,5.00,0.00,22.4,21.8,00.0,31.4,24.2,05.7,0000.0,0003.59,0001.32,0001.04
2022-01-11 10:30:00,,0831.5,4.98,0.00,22.4,21.8,00.0,31.5,24.2,05.7,0000.0,0003.50,0001.24,0000.96
2022-01-11 10:31:00,,0831.5,4.99,0.00,22.5,21.8,00.0,31.5,24.2,05.6,0000.0,0003.36,0001.13,0000.87
2022-01-11 10:32:00,,0831.5,5.01,0.00,22.5,21.8,00.0,31.5,24.2,05.5,0000.0,0003.26,0001.04,0000.79
2022-01-11 10:33:00,,0831.5,5.00,0.00,22.5,21.8,00.0,31.5,24.2,05.3,0000.0,0002.80,0000.96,0000.72
2022-01-11 10:34:00,,0831.4,5.00,0.00,22.5,21.8,00.0,31.5,24.2,05.3,0000.0,0002.23,0000.88,0000.65
2022-01-11 10:35:00,,0831.4,5.01,0.00,22.5,21.8,00.0,31.5,24.2,05.3,0000.0,0001.93,0000.79,0000.59
2022-01-11 10:36:00,,0831.5,5.00,0.00,22.5,21.8,00.0,31.5,24.2,05.2,0000.0,0001.32,0000.70,0000.53
2022-01-11 10:37:00,,0831.5,4.99,0.00,22.5,21.8,00.0,31.5,24.2,05.2,0000.0,0001.22,0000.63,0000.48
2022-01-11 10:38:00,,0831.5,5.00,0.00,22.5,21.8,00.0,31.5,24.2,05.4,0000.0,0001.02,0000.58,0000.45
2022-01-11 10:39:00,,0831.5,5.01,0.00,22.5,21.8,00.0,31.5,24.2,05.3,0000.0,0000.87,0000.55,0000.43
2022-01-11 10:40:00,,0831.5,4.99,0.00,22.5,21.8,00.0,31.5,24.3,05.2,0000.0,0000.88,0000.56,0000.42
2022-01-11 10:41:00,,0831.5,5.00,0.00,22.5,21.8,00.0,31.5,24.2,04.9,0000.0,0000.87,0000.54,0000.40
2022-01-11 10:42:00,,0831.4,5.00,0.00,22.5,21.8,00.0,31.5,24.2,04.8,0000.0,0000.79,0000.50,0000.37
2022-01-11 10:43:00,,0831.5,4.99,0.00,22.5,21.8,00.0,31.5,24.3,04.7,0000.0,0000.69,0000.45,0000.34
2022-01-11 10:44:00,,0831.5,5.01,0.00,22.5,21.8,00.0,31.5,24.3,05.3,0000.0,0000.61,0000.42,0000.33
2022-01-11 10:45:00,,0831.5,4.99,0.00,22.5,21.8,00.0,31.5,24.3,05.3,0000.0,0000.56,0000.41,0000.33
2022-01-11 10:46:00,,0831.5,5.00,0.00,22.5,21.8,00.0,31.5,24.3,05.4,0000.0,0000.63,0000.42,0000.34
2022-01-11 10:47:00,,0831.4,5.02,0.00,22.5,21.8,00.0,31.5,24.2,05.6,0000.0,0000.66,0000.44,0000.34
2022-01-11 10:48:00,,0831.4,4.99,0.00,22.5,21.8,00.0,31.5,24.2,05.6,0000.0,0000.64,0000.45,0000.35
2022-01-11 10:49:00,,0831.4,5.00,0.00,22.5,21.8,00.0,31.5,24.3,05.6,0000.0,0000.63,0000.45,0000.36
2022-01-11 10:50:00,,0831.5,5.00,0.00,22.5,21.8,00.0,31.5,24.2,05.4,0000.0,0000.63,0000.45,0000.36
2022-01-11 10:51:00,,0831.4,5.02,0.00,22.5,21.8,00.0,31.5,24.3,05.3,0000.0,0000.60,0000.43,0000.35
2022-01-11 10:52:00,,0831.4,4.99,0.00,22.5,21.8,00.0,31.5,24.3,05.3,0000.0,0000.66,0000.42,0000.35
2022-01-11 10:53:00,,0831.4,5.01,0.00,22.5,21.8,00.0,31.5,24.2,05.4,0000.0,0000.78,0000.46,0000.37
2022-01-11 10:54:00,,0831.4,4.99,0.00,22.5,21.8,00.0,31.5,24.2,05.5,0000.0,0000.80,0000.47,0000.39
2022-01-11 10:55:00,,0831.4,5.01,0.00,22.5,21.8,00.0,31.5,24.2,05.4,0000.0,0000.82,0000.49,0000.39
2022-01-11 10:56:00,,0831.4,4.99,0.00,22.5,21.8,00.0,31.5,24.2,05.4,0000.0,0000.82,0000.48,0000.38
2022-01-11 10:57:00,,0831.4,5.01,0.00,22.5,21.8,00.0,31.5,24.2,05.4,0000.0,0000.77,0000.47,0000.38
2022-01-11 10:58:00,,0831.4,4.99,0.00,22.5,21.8,00.0,31.5,24.2,05.4,0000.0,0000.73,0000.45,0000.38
2022-01-11 10:59:00,,0831.4,5.01,0.00,22.5,21.8,00.0,31.5,24.2,05.5,0000.0,0000.84,0000.46,0000.38
